Year,Month,Day,Hour,Minute,Value (Times are PST for temperature in C)
2016,03,13,00,00,6.00
2016,03,13,00,01,6.00
2016,03,13,00,02,6.00
2016,03,13,00,03,5.90
2016,03,13,00,04,5.90
2016,03,13,00,05,5.90
2016,03,13,00,06,5.90
2016,03,13,00,07,5.90
2016,03,13,00,08,5.90
2016,03,13,00,09,5.90
2016,03,13,00,10,5.90
2016,03,13,00,11,5.90
2016,03,13,00,12,5.80
2016,03,13,00,13,5.80
2016,03,13,00,14,5.80
2016,03,13,00,15,5.80
2016,03,13,00,16,5.80
2016,03,13,00,17,5.80
2016,03,13,00,18,5.80
2016,03,13,00,19,5.80
2016,03,13,00,20,5.80
2016,03,13,00,21,5.80
2016,03,13,00,22,5.80
2016,03,13,00,23,5.80
2016,03,13,00,24,5.80
2016,03,13,00,25,5.80
2016,03,13,00,26,5.80
2016,03,13,00,27,5.80
2016,03,13,00,28,5.80
2016,03,13,00,29,5.80
2016,03,13,00,30,5.80
2016,03,13,00,31,5.80
2016,03,13,00,32,5.80
2016,03,13,00,33,5.80
2016,03,13,00,34,5.80
2016,03,13,00,35,5.80
2016,03,13,00,36,5.80
2016,03,13,00,37,5.80
2016,03,13,00,38,5.80
2016,03,13,00,39,5.80
2016,03,13,00,40,5.80
2016,03,13,00,41,5.70
2016,03,13,00,42,5.70
2016,03,13,00,43,5.70
2016,03,13,00,44,5.70
2016,03,13,00,45,5.70
2016,03,13,00,46,5.70
2016,03,13,00,47,5.70
2016,03,13,00,48,5.70
2016,03,13,00,49,5.70
2016,03,13,00,50,5.70
2016,03,13,00,51,5.70
2016,03,13,00,52,5.70
2016,03,13,00,53,5.70
2016,03,13,00,54,5.70
2016,03,13,00,55,5.70
2016,03,13,00,56,5.70
2016,03,13,00,57,5.70
2016,03,13,00,58,5.70
2016,03,13,00,59,5.70
2016,03,13,01,00,5.80
2016,03,13,01,01,5.80
2016,03,13,01,02,5.80
2016,03,13,01,03,5.80
2016,03,13,01,04,5.80
2016,03,13,01,05,5.80
2016,03,13,01,06,5.80
2016,03,13,01,07,5.80
2016,03,13,01,08,5.90
2016,03,13,01,09,5.90
2016,03,13,01,10,5.90
2016,03,13,01,11,5.90
2016,03,13,01,12,5.90
2016,03,13,01,13,5.90
2016,03,13,01,14,5.90
2016,03,13,01,15,6.00
2016,03,13,01,16,6.00
2016,03,13,01,17,6.00
2016,03,13,01,18,6.00
2016,03,13,01,19,6.00
2016,03,13,01,20,6.00
2016,03,13,01,21,6.00
2016,03,13,01,22,6.00
2016,03,13,01,23,6.10
2016,03,13,01,24,6.10
2016,03,13,01,25,6.10
2016,03,13,01,26,6.10
2016,03,13,01,27,6.10
2016,03,13,01,28,6.10
2016,03,13,01,29,6.10
2016,03,13,01,30,6.10
2016,03,13,01,31,6.10
2016,03,13,01,32,6.10
2016,03,13,01,33,6.10
2016,03,13,01,34,6.10
2016,03,13,01,35,6.20
2016,03,13,01,36,6.20
2016,03,13,01,37,6.20
2016,03,13,01,38,6.20
2016,03,13,01,39,6.20
2016,03,13,01,40,6.20
2016,03,13,01,41,6.20
2016,03,13,01,42,6.20
2016,03,13,01,43,6.20
2016,03,13,01,44,6.20
2016,03,13,01,45,6.20
2016,03,13,01,46,6.20
2016,03,13,01,47,6.20
2016,03,13,01,48,6.20
2016,03,13,01,49,6.20
2016,03,13,01,50,6.20
2016,03,13,01,51,6.20
2016,03,13,01,52,6.20
2016,03,13,01,53,6.20
2016,03,13,01,54,6.20
2016,03,13,01,55,6.20
2016,03,13,01,56,6.20
2016,03,13,01,57,6.20
2016,03,13,01,58,6.20
2016,03,13,01,59,6.20
2016,03,13,03,00,6.20
2016,03,13,03,01,6.20
2016,03,13,03,02,6.20
2016,03,13,03,03,6.20
2016,03,13,03,04,6.30
2016,03,13,03,05,6.30
2016,03,13,03,06,6.30
2016,03,13,03,07,6.30
2016,03,13,03,08,6.30
2016,03,13,03,09,6.30
2016,03,13,03,10,6.40
2016,03,13,03,11,6.40
2016,03,13,03,12,6.40
2016,03,13,03,13,6.40
2016,03,13,03,14,6.40
2016,03,13,03,15,6.40
2016,03,13,03,16,6.40
2016,03,13,03,17,6.50
2016,03,13,03,18,6.50
2016,03,13,03,19,6.50
2016,03,13,03,20,6.50
2016,03,13,03,21,6.50
2016,03,13,03,22,6.50
2016,03,13,03,23,6.50
2016,03,13,03,24,6.50
2016,03,13,03,25,6.50
2016,03,13,03,26,6.50
2016,03,13,03,27,6.50
2016,03,13,03,28,6.50
2016,03,13,03,29,6.50
2016,03,13,03,30,6.50
2016,03,13,03,31,6.50
2016,03,13,03,32,6.50
2016,03,13,03,33,6.50
2016,03,13,03,34,6.50
2016,03,13,03,35,6.50
2016,03,13,03,36,6.50
2016,03,13,03,37,6.50
2016,03,13,03,38,6.50
2016,03,13,03,39,6.50
2016,03,13,03,40,6.50
2016,03,13,03,41,6.50
2016,03,13,03,42,6.60
2016,03,13,03,43,6.60
2016,03,13,03,44,6.60
2016,03,13,03,45,6.60
2016,03,13,03,46,6.60
2016,03,13,03,47,6.60
2016,03,13,03,48,6.60
2016,03,13,03,49,6.60
2016,03,13,03,50,6.60
2016,03,13,03,51,6.70
2016,03,13,03,52,6.70
2016,03,13,03,53,6.70
2016,03,13,03,54,6.70
2016,03,13,03,55,6.70
2016,03,13,03,56,6.70
2016,03,13,03,57,6.70
2016,03,13,03,58,6.70
2016,03,13,03,59,6.70
2016,03,13,04,00,6.80
2016,03,13,04,01,6.80
2016,03,13,04,02,6.80
2016,03,13,04,03,6.80
2016,03,13,04,04,6.80
2016,03,13,04,05,6.80
2016,03,13,04,06,6.80
2016,03,13,04,07,6.80
2016,03,13,04,08,6.80
2016,03,13,04,09,6.80
2016,03,13,04,10,6.80
2016,03,13,04,11,6.80
2016,03,13,04,12,6.80
2016,03,13,04,13,6.80
2016,03,13,04,14,6.80
2016,03,13,04,15,6.80
2016,03,13,04,16,6.80
2016,03,13,04,17,6.80
2016,03,13,04,18,6.80
2016,03,13,04,19,6.80
2016,03,13,04,20,6.80
2016,03,13,04,21,6.80
2016,03,13,04,22,6.80
2016,03,13,04,23,6.80
2016,03,13,04,24,6.80
2016,03,13,04,25,6.90
2016,03,13,04,26,6.90
2016,03,13,04,27,6.90
2016,03,13,04,28,6.90
2016,03,13,04,29,6.90
2016,03,13,04,30,6.90
2016,03,13,04,31,6.90
2016,03,13,04,32,7.00
2016,03,13,04,33,7.00
2016,03,13,04,34,7.00
2016,03,13,04,35,7.00
2016,03,13,04,36,7.00
2016,03,13,04,37,7.10
2016,03,13,04,38,7.10
2016,03,13,04,39,7.10
2016,03,13,04,40,7.10
2016,03,13,04,41,7.10
2016,03,13,04,42,7.10
2016,03,13,04,43,7.10
2016,03,13,04,44,7.10
2016,03,13,04,45,7.10
2016,03,13,04,46,7.10
2016,03,13,04,47,7.10
2016,03,13,04,48,7.10
2016,03,13,04,49,7.10
2016,03,13,04,50,7.10
2016,03,13,04,51,7.10
2016,03,13,04,52,7.10
2016,03,13,04,53,7.10
2016,03,13,04,54,7.10
2016,03,13,04,55,7.10
2016,03,13,04,56,7.10
2016,03,13,04,57,7.10
2016,03,13,04,58,7.10
2016,03,13,04,59,7.20
2016,03,13,05,00,7.20
2016,03,13,05,01,7.20
2016,03,13,05,02,7.20
2016,03,13,05,03,7.20
2016,03,13,05,04,7.20
2016,03,13,05,05,7.20
2016,03,13,05,06,7.20
2016,03,13,05,07,7.20
2016,03,13,05,08,7.20
2016,03,13,05,09,7.20
2016,03,13,05,10,7.20
2016,03,13,05,11,7.20
2016,03,13,05,12,7.20
2016,03,13,05,13,7.20
2016,03,13,05,14,7.20
2016,03,13,05,15,7.20
2016,03,13,05,16,7.10
2016,03,13,05,17,7.10
2016,03,13,05,18,7.10
2016,03,13,05,19,7.10
2016,03,13,05,20,7.00
2016,03,13,05,21,7.00
2016,03,13,05,22,7.00
2016,03,13,05,23,6.90
2016,03,13,05,24,6.90
2016,03,13,05,25,6.90
2016,03,13,05,26,6.80
2016,03,13,05,27,6.80
2016,03,13,05,28,6.80
2016,03,13,05,29,6.80
2016,03,13,05,30,6.80
2016,03,13,05,31,6.70
2016,03,13,05,32,6.70
2016,03,13,05,33,6.70
2016,03,13,05,34,6.70
2016,03,13,05,35,6.70
2016,03,13,05,36,6.70
2016,03,13,05,37,6.60
2016,03,13,05,38,6.60
2016,03,13,05,39,6.50
2016,03,13,05,40,6.50
2016,03,13,05,41,6.50
2016,03,13,05,42,6.40
2016,03,13,05,43,6.40
2016,03,13,05,44,6.40
2016,03,13,05,45,6.40
2016,03,13,05,46,6.30
2016,03,13,05,47,6.30
2016,03,13,05,48,6.30
2016,03,13,05,49,6.30
2016,03,13,05,50,6.30
2016,03,13,05,51,6.30
2016,03,13,05,52,6.30
2016,03,13,05,53,6.30
2016,03,13,05,54,6.30
2016,03,13,05,55,6.30
2016,03,13,05,56,6.20
2016,03,13,05,57,6.20
2016,03,13,05,58,6.20
2016,03,13,05,59,6.20
2016,03,13,06,00,6.20
2016,03,13,06,01,6.20
2016,03,13,06,02,6.20
2016,03,13,06,03,6.20
2016,03,13,06,04,6.20
2016,03,13,06,05,6.20
2016,03,13,06,06,6.20
2016,03,13,06,07,6.20
2016,03,13,06,08,6.20
2016,03,13,06,09,6.20
2016,03,13,06,10,6.20
2016,03,13,06,11,6.20
2016,03,13,06,12,6.20
2016,03,13,06,13,6.20
2016,03,13,06,14,6.20
2016,03,13,06,15,6.20
2016,03,13,06,16,6.20
2016,03,13,06,17,6.20
2016,03,13,06,18,6.20
2016,03,13,06,19,6.20
2016,03,13,06,20,6.20
2016,03,13,06,21,6.20
2016,03,13,06,22,6.10
2016,03,13,06,23,6.20
2016,03,13,06,24,6.10
2016,03,13,06,25,6.10
2016,03,13,06,26,6.10
2016,03,13,06,27,6.10
2016,03,13,06,28,6.10
2016,03,13,06,29,6.10
2016,03,13,06,30,6.00
2016,03,13,06,31,6.00
2016,03,13,06,32,6.00
2016,03,13,06,33,6.00
2016,03,13,06,34,6.00
2016,03,13,06,35,6.00
2016,03,13,06,36,6.00
2016,03,13,06,37,6.00
2016,03,13,06,38,6.10
2016,03,13,06,39,6.10
2016,03,13,06,40,6.10
2016,03,13,06,41,6.10
2016,03,13,06,42,6.10
2016,03,13,06,43,6.10
2016,03,13,06,44,6.10
2016,03,13,06,45,6.00
2016,03,13,06,46,6.00
2016,03,13,06,47,6.00
2016,03,13,06,48,6.00
2016,03,13,06,49,5.90
2016,03,13,06,50,5.90
2016,03,13,06,51,5.90
2016,03,13,06,52,5.90
2016,03,13,06,53,5.90
2016,03,13,06,54,5.80
2016,03,13,06,55,5.80
2016,03,13,06,56,5.80
2016,03,13,06,57,5.80
2016,03,13,06,58,5.80
2016,03,13,06,59,5.80
2016,03,13,07,00,5.70
2016,03,13,07,01,5.70
2016,03,13,07,02,5.70
2016,03,13,07,03,5.70
2016,03,13,07,04,5.70
2016,03,13,07,05,5.70
2016,03,13,07,06,5.70
2016,03,13,07,07,5.70
2016,03,13,07,08,5.70
2016,03,13,07,09,5.70
2016,03,13,07,10,5.60
2016,03,13,07,11,5.60
2016,03,13,07,12,5.60
2016,03,13,07,13,5.60
2016,03,13,07,14,5.60
2016,03,13,07,15,5.60
2016,03,13,07,16,5.60
2016,03,13,07,17,5.60
2016,03,13,07,18,5.60
2016,03,13,07,19,5.60
2016,03,13,07,20,5.60
2016,03,13,07,21,5.60
2016,03,13,07,22,5.60
2016,03,13,07,23,5.60
2016,03,13,07,24,5.60
2016,03,13,07,25,5.60
2016,03,13,07,26,5.60
2016,03,13,07,27,5.60
2016,03,13,07,28,5.60
2016,03,13,07,29,5.60
2016,03,13,07,30,5.60
2016,03,13,07,31,5.60
2016,03,13,07,32,5.60
2016,03,13,07,33,5.60
2016,03,13,07,34,5.60
2016,03,13,07,35,5.60
2016,03,13,07,36,5.60
2016,03,13,07,37,5.60
2016,03,13,07,38,5.60
2016,03,13,07,39,5.60
2016,03,13,07,40,5.60
2016,03,13,07,41,5.60
2016,03,13,07,42,5.60
2016,03,13,07,43,5.60
2016,03,13,07,44,5.60
2016,03,13,07,45,5.60
2016,03,13,07,46,5.60
2016,03,13,07,47,5.60
2016,03,13,07,48,5.60
2016,03,13,07,49,5.70
2016,03,13,07,50,5.70
2016,03,13,07,51,5.70
2016,03,13,07,52,5.70
2016,03,13,07,53,5.70
2016,03,13,07,54,5.70
2016,03,13,07,55,5.70
2016,03,13,07,56,5.80
2016,03,13,07,57,5.80
2016,03,13,07,58,5.80
2016,03,13,07,59,5.80
2016,03,13,08,00,5.80
2016,03,13,08,01,5.90
2016,03,13,08,02,5.90
2016,03,13,08,03,5.90
2016,03,13,08,04,6.00
2016,03,13,08,05,6.00
2016,03,13,08,06,6.10
2016,03,13,08,07,6.10
2016,03,13,08,08,6.10
2016,03,13,08,09,6.10
2016,03,13,08,10,6.20
2016,03,13,08,11,6.20
2016,03,13,08,12,6.20
2016,03,13,08,13,6.20
2016,03,13,08,14,6.20
2016,03,13,08,15,6.20
2016,03,13,08,16,6.20
2016,03,13,08,17,6.20
2016,03,13,08,18,6.20
2016,03,13,08,19,6.30
2016,03,13,08,20,6.30
2016,03,13,08,21,6.30
2016,03,13,08,22,6.30
2016,03,13,08,23,6.30
2016,03,13,08,24,6.30
2016,03,13,08,25,6.40
2016,03,13,08,26,6.40
2016,03,13,08,27,6.40
2016,03,13,08,28,6.40
2016,03,13,08,29,6.40
2016,03,13,08,30,6.40
2016,03,13,08,31,6.40
2016,03,13,08,32,6.40
2016,03,13,08,33,6.40
2016,03,13,08,34,6.40
2016,03,13,08,35,6.40
2016,03,13,08,36,6.40
2016,03,13,08,37,6.40
2016,03,13,08,38,6.40
2016,03,13,08,39,6.40
2016,03,13,08,40,6.60
2016,03,13,08,41,6.60
2016,03,13,08,42,6.60
2016,03,13,08,43,6.60
2016,03,13,08,44,6.60
2016,03,13,08,45,6.60
2016,03,13,08,46,6.60
2016,03,13,08,47,6.60
2016,03,13,08,48,6.60
2016,03,13,08,49,6.60
2016,03,13,08,50,6.60
2016,03,13,08,51,6.60
2016,03,13,08,52,6.60
2016,03,13,08,53,6.60
2016,03,13,08,54,6.60
2016,03,13,08,55,6.60
2016,03,13,08,56,6.60
2016,03,13,08,57,6.60
2016,03,13,08,58,6.60
2016,03,13,08,59,6.60
2016,03,13,09,00,6.70
2016,03,13,09,01,6.70
2016,03,13,09,02,6.70
2016,03,13,09,03,6.70
2016,03,13,09,04,6.70
2016,03,13,09,05,6.70
2016,03,13,09,06,6.70
2016,03,13,09,07,6.70
2016,03,13,09,08,6.70
2016,03,13,09,09,6.70
2016,03,13,09,10,6.70
2016,03,13,09,11,6.70
2016,03,13,09,12,6.60
2016,03,13,09,13,6.60
2016,03,13,09,14,6.70
2016,03,13,09,15,6.60
2016,03,13,09,16,6.70
2016,03,13,09,17,6.70
2016,03,13,09,18,6.70
2016,03,13,09,19,6.70
2016,03,13,09,20,6.70
2016,03,13,09,21,6.70
2016,03,13,09,22,6.70
2016,03,13,09,23,6.70
2016,03,13,09,24,6.70
2016,03,13,09,25,6.70
2016,03,13,09,26,6.70
2016,03,13,09,27,6.70
2016,03,13,09,28,6.80
2016,03,13,09,29,6.80
2016,03,13,09,30,6.80
2016,03,13,09,31,6.80
2016,03,13,09,32,6.80
2016,03,13,09,33,6.80
2016,03,13,09,34,6.80
2016,03,13,09,35,6.80
2016,03,13,09,36,6.80
2016,03,13,09,37,6.80
2016,03,13,09,38,6.80
2016,03,13,09,39,6.80
2016,03,13,09,40,6.80
2016,03,13,09,41,6.80
2016,03,13,09,42,6.70
2016,03,13,09,43,6.70
2016,03,13,09,44,6.80
2016,03,13,09,45,6.80
2016,03,13,09,46,6.80
2016,03,13,09,47,6.80
2016,03,13,09,48,6.80
2016,03,13,09,49,6.70
2016,03,13,09,50,6.70
2016,03,13,09,51,6.70
2016,03,13,09,52,6.70
2016,03,13,09,53,6.70
2016,03,13,09,54,6.70
2016,03,13,09,55,6.70
2016,03,13,09,56,6.70
2016,03,13,09,57,6.70
2016,03,13,09,58,6.70
2016,03,13,09,59,6.70
2016,03,13,10,00,6.70
2016,03,13,10,01,6.70
2016,03,13,10,02,6.70
2016,03,13,10,03,6.60
2016,03,13,10,04,6.60
2016,03,13,10,05,6.60
2016,03,13,10,06,6.60
2016,03,13,10,07,6.60
2016,03,13,10,08,6.60
2016,03,13,10,09,6.60
2016,03,13,10,10,6.50
2016,03,13,10,11,6.50
2016,03,13,10,12,6.50
2016,03,13,10,13,6.40
2016,03,13,10,14,6.40
2016,03,13,10,15,6.40
2016,03,13,10,16,6.40
2016,03,13,10,17,6.30
2016,03,13,10,18,6.30
2016,03,13,10,19,6.30
2016,03,13,10,20,6.30
2016,03,13,10,21,6.30
2016,03,13,10,22,6.20
2016,03,13,10,23,6.20
2016,03,13,10,24,6.20
2016,03,13,10,25,6.20
2016,03,13,10,26,6.20
2016,03,13,10,27,6.20
2016,03,13,10,28,6.20
2016,03,13,10,29,6.10
2016,03,13,10,30,6.20
2016,03,13,10,31,6.20
2016,03,13,10,32,6.20
2016,03,13,10,33,6.20
2016,03,13,10,34,6.20
2016,03,13,10,35,6.20
2016,03,13,10,36,6.20
2016,03,13,10,37,6.20
2016,03,13,10,38,6.20
2016,03,13,10,39,6.20
2016,03,13,10,40,6.10
2016,03,13,10,41,6.20
2016,03,13,10,42,6.20
2016,03,13,10,43,6.20
2016,03,13,10,44,6.10
2016,03,13,10,45,6.20
2016,03,13,10,46,6.20
2016,03,13,10,47,6.20
2016,03,13,10,48,6.20
2016,03,13,10,49,6.20
2016,03,13,10,50,6.20
2016,03,13,10,51,6.20
2016,03,13,10,52,6.20
2016,03,13,10,53,6.20
2016,03,13,10,54,6.20
2016,03,13,10,55,6.20
2016,03,13,10,56,6.20
2016,03,13,10,57,6.20
2016,03,13,10,58,6.20
2016,03,13,10,59,6.20
2016,03,13,11,00,6.20
2016,03,13,11,01,6.30
2016,03,13,11,02,6.30
2016,03,13,11,03,6.30
2016,03,13,11,04,6.30
2016,03,13,11,05,6.30
2016,03,13,11,06,6.30
2016,03,13,11,07,6.30
2016,03,13,11,08,6.30
2016,03,13,11,09,6.40
2016,03,13,11,10,6.40
2016,03,13,11,11,6.40
2016,03,13,11,12,6.40
2016,03,13,11,13,6.40
2016,03,13,11,14,6.40
2016,03,13,11,15,6.40
2016,03,13,11,16,6.40
2016,03,13,11,17,6.40
2016,03,13,11,18,6.40
2016,03,13,11,19,6.40
2016,03,13,11,20,6.40
2016,03,13,11,21,6.40
2016,03,13,11,22,6.40
2016,03,13,11,23,6.40
2016,03,13,11,24,6.50
2016,03,13,11,25,6.40
2016,03,13,11,26,6.40
2016,03,13,11,27,6.40
2016,03,13,11,28,6.50
2016,03,13,11,29,6.50
2016,03,13,11,30,6.50
2016,03,13,11,31,6.60
2016,03,13,11,32,6.60
2016,03,13,11,33,6.60
2016,03,13,11,34,6.60
2016,03,13,11,35,6.60
2016,03,13,11,36,6.70
2016,03,13,11,37,6.70
2016,03,13,11,38,6.70
2016,03,13,11,39,6.70
2016,03,13,11,40,6.70
2016,03,13,11,41,6.70
2016,03,13,11,42,6.70
2016,03,13,11,43,6.70
2016,03,13,11,44,6.70
2016,03,13,11,45,6.70
2016,03,13,11,46,6.70
2016,03,13,11,47,6.70
2016,03,13,11,48,6.70
2016,03,13,11,49,6.70
2016,03,13,11,50,6.70
2016,03,13,11,51,6.70
2016,03,13,11,52,6.70
2016,03,13,11,53,6.70
2016,03,13,11,54,6.70
2016,03,13,11,55,6.70
2016,03,13,11,56,6.70
2016,03,13,11,57,6.70
2016,03,13,11,58,6.60
2016,03,13,11,59,6.60
2016,03,13,12,00,6.60
2016,03,13,12,01,6.60
2016,03,13,12,02,6.60
2016,03,13,12,03,6.60
2016,03,13,12,04,6.60
2016,03,13,12,05,6.60
2016,03,13,12,06,6.50
2016,03,13,12,07,6.60
2016,03,13,12,08,6.60
2016,03,13,12,09,6.60
2016,03,13,12,10,6.60
2016,03,13,12,11,6.60
2016,03,13,12,12,6.60
2016,03,13,12,13,6.70
2016,03,13,12,14,6.70
2016,03,13,12,15,6.70
2016,03,13,12,16,6.70
2016,03,13,12,17,6.70
2016,03,13,12,18,6.70
2016,03,13,12,19,6.70
2016,03,13,12,20,6.70
2016,03,13,12,21,6.70
2016,03,13,12,22,6.70
2016,03,13,12,23,6.70
2016,03,13,12,24,6.70
2016,03,13,12,25,6.70
2016,03,13,12,26,6.60
2016,03,13,12,27,6.60
2016,03,13,12,28,6.50
2016,03,13,12,29,6.50
2016,03,13,12,30,6.50
2016,03,13,12,31,6.40
2016,03,13,12,32,6.40
2016,03,13,12,33,6.30
2016,03,13,12,34,6.30
2016,03,13,12,35,6.30
2016,03,13,12,36,6.20
2016,03,13,12,37,6.20
2016,03,13,12,38,6.10
2016,03,13,12,39,6.10
2016,03,13,12,40,6.10
2016,03,13,12,41,6.10
2016,03,13,12,42,6.10
2016,03,13,12,43,6.00
2016,03,13,12,44,6.00
2016,03,13,12,45,6.00
2016,03,13,12,46,5.90
2016,03,13,12,47,5.90
2016,03,13,12,48,5.90
2016,03,13,12,49,5.90
2016,03,13,12,50,5.90
2016,03,13,12,51,5.90
2016,03,13,12,52,5.90
2016,03,13,12,53,5.90
2016,03,13,12,54,5.90
2016,03,13,12,55,5.90
2016,03,13,12,56,5.90
2016,03,13,12,57,5.90
2016,03,13,12,58,5.80
2016,03,13,12,59,5.80
2016,03,13,13,00,5.80
2016,03,13,13,01,5.80
2016,03,13,13,02,5.80
2016,03,13,13,03,5.80
2016,03,13,13,04,5.80
2016,03,13,13,05,5.80
2016,03,13,13,06,5.80
2016,03,13,13,07,5.80
2016,03,13,13,08,5.80
2016,03,13,13,09,5.80
2016,03,13,13,10,5.80
2016,03,13,13,11,5.80
2016,03,13,13,12,5.80
2016,03,13,13,13,5.80
2016,03,13,13,14,5.80
2016,03,13,13,15,5.80
2016,03,13,13,16,5.80
2016,03,13,13,17,5.80
2016,03,13,13,18,5.80
2016,03,13,13,19,5.90
2016,03,13,13,20,5.90
2016,03,13,13,21,5.90
2016,03,13,13,22,5.90
2016,03,13,13,23,5.90
2016,03,13,13,24,6.00
2016,03,13,13,25,6.00
2016,03,13,13,26,6.00
2016,03,13,13,27,6.00
2016,03,13,13,28,6.10
2016,03,13,13,29,6.10
2016,03,13,13,30,6.10
2016,03,13,13,31,6.10
2016,03,13,13,32,6.10
2016,03,13,13,33,6.10
2016,03,13,13,34,6.10
2016,03,13,13,35,6.10
2016,03,13,13,36,6.10
2016,03,13,13,37,6.20
2016,03,13,13,38,6.20
2016,03,13,13,39,6.20
2016,03,13,13,40,6.20
2016,03,13,13,41,6.20
2016,03,13,13,42,6.20
2016,03,13,13,43,6.30
2016,03,13,13,44,6.30
2016,03,13,13,45,6.30
2016,03,13,13,46,6.30
2016,03,13,13,47,6.30
2016,03,13,13,48,6.30
2016,03,13,13,49,6.30
2016,03,13,13,50,6.30
2016,03,13,13,51,6.30
2016,03,13,13,52,6.30
2016,03,13,13,53,6.30
2016,03,13,13,54,6.30
2016,03,13,13,55,6.30
2016,03,13,13,56,6.30
2016,03,13,13,57,6.30
2016,03,13,13,58,6.30
2016,03,13,13,59,6.30
2016,03,13,14,00,6.40
2016,03,13,14,01,6.40
2016,03,13,14,02,6.40
2016,03,13,14,03,6.40
2016,03,13,14,04,6.50
2016,03,13,14,05,6.50
2016,03,13,14,06,6.50
2016,03,13,14,07,6.60
2016,03,13,14,08,6.60
2016,03,13,14,09,6.60
2016,03,13,14,10,6.50
2016,03,13,14,11,6.50
2016,03,13,14,12,6.50
2016,03,13,14,13,6.50
2016,03,13,14,14,6.50
2016,03,13,14,15,6.50
2016,03,13,14,16,6.50
2016,03,13,14,17,6.40
2016,03,13,14,18,6.40
2016,03,13,14,19,6.40
2016,03,13,14,20,6.40
2016,03,13,14,21,6.40
2016,03,13,14,22,6.40
2016,03,13,14,23,6.40
2016,03,13,14,24,6.40
2016,03,13,14,25,6.40
2016,03,13,14,26,6.50
2016,03,13,14,27,6.50
2016,03,13,14,28,6.50
2016,03,13,14,29,6.50
2016,03,13,14,30,6.50
2016,03,13,14,31,6.50
2016,03,13,14,32,6.50
2016,03,13,14,33,6.50
2016,03,13,14,34,6.50
2016,03,13,14,35,6.50
2016,03,13,14,36,6.60
2016,03,13,14,37,6.60
2016,03,13,14,38,6.60
2016,03,13,14,39,6.60
2016,03,13,14,40,6.60
2016,03,13,14,41,6.60
2016,03,13,14,42,6.70
2016,03,13,14,43,6.70
2016,03,13,14,44,6.70
2016,03,13,14,45,6.70
2016,03,13,14,46,6.70
2016,03,13,14,47,6.70
2016,03,13,14,48,6.70
2016,03,13,14,49,6.70
2016,03,13,14,50,6.70
2016,03,13,14,51,6.70
2016,03,13,14,52,6.80
2016,03,13,14,53,6.80
2016,03,13,14,54,6.80
2016,03,13,14,55,6.80
2016,03,13,14,56,6.80
2016,03,13,14,57,6.80
2016,03,13,14,58,6.80
2016,03,13,14,59,6.80
2016,03,13,15,00,6.80
2016,03,13,15,01,6.90
2016,03,13,15,02,6.90
2016,03,13,15,03,6.90
2016,03,13,15,04,6.90
2016,03,13,15,05,7.00
2016,03,13,15,06,7.00
2016,03,13,15,07,7.00
2016,03,13,15,08,7.10
2016,03,13,15,09,7.10
2016,03,13,15,10,7.10
2016,03,13,15,11,7.10
2016,03,13,15,12,7.10
2016,03,13,15,13,7.20
2016,03,13,15,14,7.20
2016,03,13,15,15,7.20
2016,03,13,15,16,7.20
2016,03,13,15,17,7.20
2016,03,13,15,18,7.20
2016,03,13,15,19,7.20
2016,03,13,15,20,7.30
2016,03,13,15,21,7.30
2016,03,13,15,22,7.30
2016,03,13,15,23,7.30
2016,03,13,15,24,7.40
2016,03,13,15,25,7.40
2016,03,13,15,26,7.40
2016,03,13,15,27,7.40
2016,03,13,15,28,7.50
2016,03,13,15,29,7.50
2016,03,13,15,30,7.60
2016,03,13,15,31,7.70
2016,03,13,15,32,7.80
2016,03,13,15,33,7.80
2016,03,13,15,34,7.90
2016,03,13,15,35,8.00
2016,03,13,15,36,8.00
2016,03,13,15,37,8.10
2016,03,13,15,38,8.10
2016,03,13,15,39,8.20
2016,03,13,15,40,8.20
2016,03,13,15,41,8.20
2016,03,13,15,42,8.30
2016,03,13,15,43,8.30
2016,03,13,15,44,8.30
2016,03,13,15,45,8.30
2016,03,13,15,46,8.30
2016,03,13,15,47,8.30
2016,03,13,15,48,8.30
2016,03,13,15,49,8.30
2016,03,13,15,50,8.30
2016,03,13,15,51,8.30
2016,03,13,15,52,8.30
2016,03,13,15,53,8.40
2016,03,13,15,54,8.40
2016,03,13,15,55,8.40
2016,03,13,15,56,8.40
2016,03,13,15,57,8.40
2016,03,13,15,58,8.50
2016,03,13,15,59,8.50
2016,03,13,16,00,8.50
2016,03,13,16,01,8.60
2016,03,13,16,02,8.60
2016,03,13,16,03,8.60
2016,03,13,16,04,8.60
2016,03,13,16,05,8.70
2016,03,13,16,06,8.70
2016,03,13,16,07,8.70
2016,03,13,16,08,8.70
2016,03,13,16,09,8.70
2016,03,13,16,10,8.70
2016,03,13,16,11,8.70
2016,03,13,16,12,8.70
2016,03,13,16,13,8.70
2016,03,13,16,14,8.70
2016,03,13,16,15,8.70
2016,03,13,16,16,8.70
2016,03,13,16,17,8.70
2016,03,13,16,18,8.70
2016,03,13,16,19,8.70
2016,03,13,16,20,8.70
2016,03,13,16,21,8.70
2016,03,13,16,22,8.70
2016,03,13,16,23,8.70
2016,03,13,16,24,8.70
2016,03,13,16,25,8.70
2016,03,13,16,26,8.70
2016,03,13,16,27,8.70
2016,03,13,16,28,8.70
2016,03,13,16,29,8.70
2016,03,13,16,30,8.60
2016,03,13,16,31,8.60
2016,03,13,16,32,8.60
2016,03,13,16,33,8.50
2016,03,13,16,34,8.50
2016,03,13,16,35,8.40
2016,03,13,16,36,8.30
2016,03,13,16,37,8.30
2016,03,13,16,38,8.30
2016,03,13,16,39,8.20
2016,03,13,16,40,8.20
2016,03,13,16,41,8.10
2016,03,13,16,42,8.10
2016,03,13,16,43,8.10
2016,03,13,16,44,8.10
2016,03,13,16,45,8.10
2016,03,13,16,46,8.10
2016,03,13,16,47,8.10
2016,03,13,16,48,8.00
2016,03,13,16,49,8.00
2016,03,13,16,50,8.00
2016,03,13,16,51,8.00
2016,03,13,16,52,7.90
2016,03,13,16,53,7.90
2016,03,13,16,54,7.90
2016,03,13,16,55,7.90
2016,03,13,16,56,7.90
2016,03,13,16,57,7.90
2016,03,13,16,58,7.90
2016,03,13,16,59,7.90
2016,03,13,17,00,7.90
2016,03,13,17,01,7.80
2016,03,13,17,02,7.90
2016,03,13,17,03,7.80
2016,03,13,17,04,7.80
2016,03,13,17,05,7.80
2016,03,13,17,06,7.80
2016,03,13,17,07,7.80
2016,03,13,17,08,7.80
2016,03,13,17,09,7.80
2016,03,13,17,10,7.80
2016,03,13,17,11,7.80
2016,03,13,17,12,7.70
2016,03,13,17,13,7.70
2016,03,13,17,14,7.70
2016,03,13,17,15,7.70
2016,03,13,17,16,7.60
2016,03,13,17,17,7.60
2016,03,13,17,18,7.60
2016,03,13,17,19,7.50
2016,03,13,17,20,7.50
2016,03,13,17,21,7.50
2016,03,13,17,22,7.40
2016,03,13,17,23,7.40
2016,03,13,17,24,7.30
2016,03,13,17,25,7.30
2016,03,13,17,26,7.20
2016,03,13,17,27,7.20
2016,03,13,17,28,7.20
2016,03,13,17,29,7.20
2016,03,13,17,30,7.20
2016,03,13,17,31,7.20
2016,03,13,17,32,7.10
2016,03,13,17,33,7.10
2016,03,13,17,34,7.10
2016,03,13,17,35,7.00
2016,03,13,17,36,7.00
2016,03,13,17,37,6.90
2016,03,13,17,38,6.90
2016,03,13,17,39,6.90
2016,03,13,17,40,6.80
2016,03,13,17,41,6.80
2016,03,13,17,42,6.80
2016,03,13,17,43,6.80
2016,03,13,17,44,6.80
2016,03,13,17,45,6.80
2016,03,13,17,46,6.80
2016,03,13,17,47,6.80
2016,03,13,17,48,6.80
2016,03,13,17,49,6.80
2016,03,13,17,50,6.80
2016,03,13,17,51,6.80
2016,03,13,17,52,6.80
2016,03,13,17,53,6.80
2016,03,13,17,54,6.70
2016,03,13,17,55,6.70
2016,03,13,17,56,6.70
2016,03,13,17,57,6.70
2016,03,13,17,58,6.70
2016,03,13,17,59,6.70
2016,03,13,18,00,6.70
2016,03,13,18,01,6.70
2016,03,13,18,02,6.70
2016,03,13,18,03,6.70
2016,03,13,18,04,6.70
2016,03,13,18,05,6.70
2016,03,13,18,06,6.70
2016,03,13,18,07,6.60
2016,03,13,18,08,6.60
2016,03,13,18,09,6.60
2016,03,13,18,10,6.60
2016,03,13,18,11,6.60
2016,03,13,18,12,6.60
2016,03,13,18,13,6.60
2016,03,13,18,14,6.60
2016,03,13,18,15,6.50
2016,03,13,18,16,6.50
2016,03,13,18,17,6.50
2016,03,13,18,18,6.50
2016,03,13,18,19,6.50
2016,03,13,18,20,6.50
2016,03,13,18,21,6.40
2016,03,13,18,22,6.40
2016,03,13,18,23,6.40
2016,03,13,18,24,6.40
2016,03,13,18,25,6.40
2016,03,13,18,26,6.40
2016,03,13,18,27,6.40
2016,03,13,18,28,6.30
2016,03,13,18,29,6.30
2016,03,13,18,30,6.30
2016,03,13,18,31,6.30
2016,03,13,18,32,6.30
2016,03,13,18,33,6.30
2016,03,13,18,34,6.20
2016,03,13,18,35,6.20
2016,03,13,18,36,6.20
2016,03,13,18,37,6.20
2016,03,13,18,38,6.20
2016,03,13,18,39,6.20
2016,03,13,18,40,6.20
2016,03,13,18,41,6.20
2016,03,13,18,42,6.20
2016,03,13,18,43,6.10
2016,03,13,18,44,6.10
2016,03,13,18,45,6.10
2016,03,13,18,46,6.10
2016,03,13,18,47,6.10
2016,03,13,18,48,6.10
2016,03,13,18,49,6.10
2016,03,13,18,50,6.10
2016,03,13,18,51,6.10
2016,03,13,18,52,6.10
2016,03,13,18,53,6.10
2016,03,13,18,54,6.10
2016,03,13,18,55,6.00
2016,03,13,18,56,6.00
2016,03,13,18,57,6.00
2016,03,13,18,58,6.00
2016,03,13,18,59,6.00
2016,03,13,19,00,6.00
2016,03,13,19,01,6.00
2016,03,13,19,02,6.00
2016,03,13,19,03,6.00
2016,03,13,19,04,6.00
2016,03,13,19,05,6.00
2016,03,13,19,06,6.00